This demonstration page uses our WeatherBlox Daily Observations layout. Learn more.

Left ArrowRight Arrow

36.17497, -115.13722

Hourly Observations for November 6, 2021

Temp ( °F °C ) Dew Point ( °F °C ) Humidity (%) Winds ( mph kmh ) Pressure ( in mb ) Visibility ( mi km ) Precip ( " mm )
12:53 am 00:53 Clear 61 16.1 35 1.7 38 38 NW 6 9 30.01 1016 10 16 0.00 0.00
1:53 am 01:53 Clear 59 15 35 1.7 41 41 WNW 5 7 30.01 1016 10 16 0.00 0.00
2:53 am 02:53 Clear 60 15.6 35 1.7 39 39 Calm 30.01 1016 10 16 0.00 0.00
3:53 am 03:53 Clear 56 13.3 34 1.1 44 44 WNW 7 11 30.01 1016 10 16 0.00 0.00
4:53 am 04:53 Clear 59 15 35 1.7 41 41 Calm 30.01 1016 10 16 0.00 0.00
5:53 am 05:53 Clear 57 13.9 34 1.1 42 42 Calm 30.01 1016 10 16 0.00 0.00
6:53 am 06:53 Clear 53 11.7 34 1.1 48 48 NW 5 7 30.03 1017 10 16 0.00 0.00
7:53 am 07:53 Sunny 55 12.8 35 1.7 47 47 NW 3 6 30.04 1017 10 16 0.00 0.00
8:53 am 08:53 Sunny 64 17.8 36 2.2 35 35 Calm 30.05 1018 10 16 0.00 0.00
9:53 am 09:53 Sunny 67 19.4 34 1.1 30 30 SE 3 6 30.04 1017 10 16 0.00 0.00
10:53 am 10:53 Sunny 70 21.1 34 1.1 27 27 VRB 5 7 30.03 1017 10 16 0.00 0.00
11:53 am 11:53 Sunny 74 23.3 34 1.1 23 23 E 6 9 30.01 1016 10 16 0.00 0.00
12:53 pm 12:53 Sunny 78 25.6 35 1.7 21 21 ESE 6 9 29.97 1015 10 16 0.00 0.00
1:53 pm 13:53 Sunny 83 28.3 32 0 16 16 SE 10 17 29.94 1014 10 16 0.00 0.00
2:53 pm 14:53 Sunny 86 30 24 -4.4 10 10 S 17 28 29.91 1013 10 16 0.00 0.00
3:53 pm 15:53 Sunny 85 29.4 19 -7.2 9 9 SSW 21 33 29.90 1013 10 16 0.00 0.00
4:53 pm 16:53 Sunny 83 28.3 16 -8.9 8 8 SSW 20 31 29.89 1012 10 16 0.00 0.00
5:53 pm 17:53 Clear 81 27.2 17 -8.3 9 9 SSW 23 37 29.90 1012 10 16 0.00 0.00
6:53 pm 18:53 Clear 77 25 17 -8.3 10 10 SE 12 19 29.94 1014 10 16 0.00 0.00
7:53 pm 19:53 Clear 76 24.4 20 -6.7 12 12 ESE 9 15 29.95 1014 10 16 0.00 0.00
8:53 pm 20:53 Clear 74 23.3 23 -5 15 15 SSE 7 11 29.95 1014 10 16 0.00 0.00
9:53 pm 21:53 Clear 74 23.3 26 -3.3 17 17 S 9 15 29.94 1014 10 16 0.00 0.00
10:53 pm 22:53 Clear 73 22.8 27 -2.8 18 18 SSE 5 7 29.94 1014 10 16 0.00 0.00
11:53 pm 23:53 Clear 69 20.6 29 -1.7 22 22 E 6 9 29.95 1014 10 16 0.00 0.00

Powered by AerisWeather